sat.trackr.live / text

‹ back to catalog

KUIPER-00386

NORAD 68921 · 2026-098C

PAYLOAD ACTIVE UNKNOWN

§ Identity

Operator
Country
US
Launch date
2026-04-30
Launch site
FRGUI
Launch vehicle
Mass (kg)
RCS (m²)

External: N2YO · Heavens-Above · Gunter

§ Orbital elements

Epoch: 2026-05-25T02:32:47.311296Z

Period
93.79 min
Inclination
51.8721°
Eccentricity
0.0003551
Mean motion
15.35372445 rev/d
Perigee alt
457.4 km
Apogee alt
462.2 km
Semi-major
6,838.0 km
B*
6.1300e-4
RAAN
178.8139°
Arg perigee
80.9153°
Mean anomaly
279.2234°
Rev number
380

§ Raw data

KUIPER-003861 68921U 26098C   26145.10610314  .00021064  00000+0  61300-3 0  99902 68921  51.8721 178.8139 0003551  80.9153 279.2234 15.35372445  3808

JSON: /api/v1/satellites/68921 · /tle

For live sub-satellite position, see the globe view (requires WebGL).

§ Visibility from observer

Set your observer location to see the next 7 days of passes ≥ 10°. The values pass through the URL so the page stays shareable.

No JS? Fill the form by hand. The geolocation button needs JavaScript.